Change the Weather History Date:

Tuesday, December 6, 2011

  Actual Average Record
Temperature  
Mean Temperature 25 °F -  
Max Temperature 28 °F 53 °F 68 °F (2012)
Min Temperature 22 °F 31 °F 6 °F (2013)
Degree Days  
Heating Degree Days 40    
Moisture  
Dew Point 18 °F    
Average Humidity 77    
Maximum Humidity 87    
Minimum Humidity 66    
Precipitation  
Precipitation 0.00 in - - ()
Sea Level Pressure  
Sea Level Pressure 30.40 in    
Wind  
Wind Speed 12 mph (NNW)    
Max Wind Speed 18 mph    
Max Gust Speed -    
Visibility 10 miles    
Events      
Averages and records for this station are not official NWS values.
T = Trace of Precipitation, MM = Missing Value Source: NWS Daily Summary

Daily Weather History Graph

Daily Weather History Graph

Search for Another Location

Airport or City:

Trip Planner

Search our weather history database for the weather conditions in past years. The results will help you decide how hot, cold, wet, or windy it might be!

Date:

Astronomy

Dec. 06, 2011 Rise Set
Actual Time 7:29 AM CST 5:26 PM CST
Civil Twilight 7:02 AM CST 5:53 PM CST
Nautical Twilight 6:30 AM CST 6:25 PM CST
Astronomical Twilight 6:00 AM CST 6:55 PM CST
Moon 2:49 PM CST (12/6) 3:55 AM CST (12/6)
Length of Visible Light 10h 51m
Length of Day
9h 56m
Waxing Gibbous, 87% of the Moon is Illuminated
Dec 6
Waxing Gibbous
Dec 10
Full
Dec 17
Last Quarter
Dec 24
New
Jan 1
First Quarter

Hourly Weather History & Observations

Time (CST) Temp. Windchill Dew Point Humidity Pressure Visibility Wind Dir Wind Speed Gust Speed Precip Events Conditions
12:31 AM 24.8 °F 11.5 °F 17.6 °F 74% 30.42 in 10.0 mi North 17.3 mph - N/A   Scattered Clouds
12:55 AM 23.9 °F 9.9 °F 18.3 °F 79% 30.42 in 10.0 mi North 18.4 mph - N/A   Partly Cloudy
1:55 AM 23.4 °F 12.2 °F 18.0 °F 80% 30.42 in 10.0 mi North 11.5 mph - N/A   Partly Cloudy
2:55 AM 23.2 °F 10.8 °F 18.1 °F 81% 30.41 in 10.0 mi North 13.8 mph - N/A   Partly Cloudy
3:09 AM 23.0 °F 11.1 °F 17.6 °F 80% 30.42 in 10.0 mi North 12.7 mph - N/A   Mostly Cloudy
3:55 AM 24.3 °F 12.7 °F 18.7 °F 79% 30.41 in 10.0 mi North 12.7 mph - N/A   Overcast
4:55 AM 24.4 °F 13.5 °F 18.9 °F 79% 30.40 in 10.0 mi NNE 11.5 mph - N/A   Overcast
5:55 AM 24.4 °F 13.5 °F 18.9 °F 79% 30.40 in 10.0 mi North 11.5 mph - N/A   Overcast
6:55 AM 24.6 °F 15.8 °F 18.7 °F 78% 30.41 in 10.0 mi North 8.1 mph - N/A   Overcast
7:55 AM 24.4 °F 13.5 °F 18.5 °F 78% 30.42 in 10.0 mi North 11.5 mph - N/A   Overcast
8:55 AM 23.9 °F 12.3 °F 16.9 °F 75% 30.44 in 10.0 mi NNW 12.7 mph - N/A   Overcast
9:55 AM 24.3 °F 14.6 °F 16.9 °F 73% 30.45 in 10.0 mi North 9.2 mph - N/A   Overcast
10:55 AM 24.3 °F 14.6 °F 16.5 °F 72% 30.44 in 10.0 mi NNW 9.2 mph - N/A   Overcast
10:58 AM 24.8 °F 14.0 °F 17.6 °F 74% 30.44 in 10.0 mi NW 11.5 mph - N/A   Overcast
11:16 AM 24.8 °F 14.6 °F 15.8 °F 69% 30.44 in 10.0 mi NW 10.4 mph - N/A   Overcast
11:24 AM 24.8 °F 12.9 °F 17.6 °F 74% 30.43 in 10.0 mi NNW 13.8 mph - N/A   Overcast
11:48 AM 24.8 °F 14.6 °F 15.8 °F 69% 30.43 in 10.0 mi North 10.4 mph - N/A   Overcast
11:55 AM 24.3 °F 13.9 °F 16.5 °F 72% 30.43 in 10.0 mi North 10.4 mph - 0.00 in   Overcast
12:31 PM 24.8 °F 12.9 °F 17.6 °F 74% 30.40 in 10.0 mi NW 13.8 mph - N/A   Overcast
12:55 PM 25.7 °F 17.1 °F 17.1 °F 70% 30.39 in 10.0 mi North 8.1 mph - N/A   Overcast
1:55 PM 27.0 °F 18.0 °F 18.0 °F 69% 30.36 in 10.0 mi NNW 9.2 mph - N/A   Overcast
2:55 PM 27.5 °F 19.3 °F 18.9 °F 70% 30.34 in 10.0 mi NW 8.1 mph - N/A   Overcast
3:55 PM 28.0 °F 20.8 °F 18.5 °F 67% 30.33 in 10.0 mi NW 6.9 mph - N/A   Scattered Clouds
4:55 PM 28.0 °F 21.7 °F 18.1 °F 66% 30.33 in 10.0 mi North 5.8 mph - N/A   Clear
5:55 PM 26.4 °F - 18.5 °F 72% 30.33 in 10.0 mi Calm Calm - N/A   Clear
6:55 PM 22.8 °F 18.2 °F 19.4 °F 87% 30.34 in 10.0 mi East 3.5 mph - N/A   Clear
7:55 PM 23.2 °F - 19.8 °F 87% 30.35 in 10.0 mi Calm Calm - N/A   Clear
8:55 PM 23.9 °F - 20.7 °F 87% 30.37 in 10.0 mi Calm Calm - N/A   Clear
9:55 PM 23.5 °F - 19.9 °F 86% 30.36 in 10.0 mi Calm Calm - N/A   Clear
10:55 PM 22.5 °F 15.1 °F 19.0 °F 87% 30.38 in 10.0 mi SW 5.8 mph - N/A   Clear
11:55 PM 23.2 °F 16.0 °F 19.2 °F 85% 30.38 in 10.0 mi SW 5.8 mph - N/A   Clear